TimeCDT,TemperatureF,Dew PointF,Humidity,Sea Level PressureIn,VisibilityMPH,Wind Direction,Wind SpeedMPH,Gust SpeedMPH,PrecipitationIn,Events,Conditions,WindDirDegrees,DateUTC
12:15 AM,64.4,63.7,98,29.72,10.0,Calm,Calm,-,N/A,,Mostly Cloudy,0,2013-09-20 05:15:00
12:35 AM,64.4,63.5,97,29.72,10.0,West,3.5,-,N/A,,Mostly Cloudy,270,2013-09-20 05:35:00
12:55 AM,64.4,63.5,97,29.72,10.0,Calm,Calm,-,N/A,,Mostly Cloudy,0,2013-09-20 05:55:00
1:15 AM,64.4,63.7,98,29.71,10.0,Calm,Calm,-,N/A,,Overcast,0,2013-09-20 06:15:00
1:35 AM,64.4,63.7,98,29.70,10.0,Calm,Calm,-,N/A,,Overcast,0,2013-09-20 06:35:00
1:55 AM,64.4,63.7,98,29.71,7.0,Calm,Calm,-,N/A,,Overcast,0,2013-09-20 06:55:00
2:15 AM,64.6,64.0,98,29.71,7.0,Calm,Calm,-,N/A,,Overcast,0,2013-09-20 07:15:00
2:35 AM,64.6,64.4,99,29.71,5.0,Calm,Calm,-,N/A,Rain,Rain,0,2013-09-20 07:35:00
2:55 AM,64.8,64.4,99,29.71,5.0,WSW,4.6,-,N/A,Rain,Light Rain,240,2013-09-20 07:55:00
3:15 AM,64.8,64.4,99,29.71,5.0,Calm,Calm,-,N/A,Rain,Light Rain,0,2013-09-20 08:15:00
3:35 AM,64.8,64.4,99,29.70,5.0,Calm,Calm,-,N/A,,Overcast,0,2013-09-20 08:35:00
3:55 AM,64.8,64.4,99,29.70,5.0,WSW,3.5,-,N/A,,Overcast,250,2013-09-20 08:55:00
4:15 AM,64.8,64.4,99,29.69,5.0,Calm,Calm,-,0.01,,Overcast,0,2013-09-20 09:15:00
4:35 AM,64.8,64.4,99,29.69,7.0,Calm,Calm,-,0.01,,Overcast,0,2013-09-20 09:35:00
4:55 AM,64.8,64.0,98,29.69,7.0,West,5.8,-,0.01,,Overcast,280,2013-09-20 09:55:00
5:15 AM,64.8,63.7,96,29.69,7.0,WNW,4.6,-,N/A,,Overcast,290,2013-09-20 10:15:00
5:35 AM,64.4,63.0,95,29.69,7.0,WNW,4.6,-,N/A,,Overcast,290,2013-09-20 10:35:00
5:55 AM,64.4,63.0,95,29.69,4.0,WNW,4.6,-,N/A,,Overcast,300,2013-09-20 10:55:00
6:15 AM,64.0,62.8,96,29.69,5.0,WNW,4.6,-,N/A,,Overcast,290,2013-09-20 11:15:00
6:35 AM,63.9,62.8,96,29.69,5.0,Calm,Calm,-,N/A,,Overcast,0,2013-09-20 11:35:00
6:55 AM,63.5,62.6,97,29.70,5.0,West,5.8,-,N/A,,Overcast,280,2013-09-20 11:55:00
7:15 AM,63.5,62.1,95,29.71,2.0,West,6.9,-,N/A,Rain,Rain,270,2013-09-20 12:15:00
7:35 AM,63.0,61.9,96,29.72,3.0,West,9.2,16.1,0.02,Rain,Heavy Rain,280,2013-09-20 12:35:00
7:55 AM,62.6,61.2,95,29.72,5.0,West,8.1,-,0.02,,Light Drizzle,280,2013-09-20 12:55:00
8:15 AM,62.2,60.3,93,29.73,10.0,West,5.8,-,N/A,,Overcast,270,2013-09-20 13:15:00
8:35 AM,62.2,59.9,92,29.73,10.0,WNW,8.1,-,N/A,,Overcast,290,2013-09-20 13:35:00
8:55 AM,61.7,59.4,92,29.70,10.0,North,8.1,-,N/A,,Overcast,350,2013-09-20 13:55:00
9:15 AM,61.7,59.2,91,29.70,10.0,Calm,Calm,-,N/A,,Overcast,0,2013-09-20 14:15:00
9:35 AM,61.7,59.5,93,29.71,10.0,Calm,Calm,-,N/A,,Mostly Cloudy,0,2013-09-20 14:35:00
9:55 AM,63.1,59.9,89,29.72,10.0,West,6.9,-,N/A,,Mostly Cloudy,280,2013-09-20 14:55:00
10:15 AM,62.6,58.5,86,29.74,10.0,West,6.9,-,N/A,,Overcast,280,2013-09-20 15:15:00
10:35 AM,64.8,58.3,79,29.74,10.0,West,10.4,-,N/A,,Overcast,260,2013-09-20 15:35:00
10:55 AM,62.6,57.0,82,29.75,10.0,West,9.2,-,N/A,,Overcast,270,2013-09-20 15:55:00
11:15 AM,64.2,56.5,76,29.74,10.0,West,6.9,-,N/A,,Mostly Cloudy,270,2013-09-20 16:15:00
11:35 AM,65.3,56.3,73,29.74,10.0,WNW,8.1,17.3,N/A,,Mostly Cloudy,290,2013-09-20 16:35:00
11:55 AM,63.1,54.7,74,29.74,10.0,West,9.2,-,N/A,,Overcast,270,2013-09-20 16:55:00
12:15 PM,64.8,53.8,68,29.73,10.0,West,9.2,16.1,N/A,,Mostly Cloudy,260,2013-09-20 17:15:00
12:35 PM,66.6,53.6,63,29.73,10.0,West,10.4,-,N/A,,Mostly Cloudy,270,2013-09-20 17:35:00
12:55 PM,67.6,54.1,62,29.72,10.0,WSW,8.1,-,N/A,,Mostly Cloudy,250,2013-09-20 17:55:00
1:15 PM,67.5,52.0,58,29.72,10.0,WSW,10.4,-,N/A,,Mostly Cloudy,250,2013-09-20 18:15:00
1:35 PM,67.1,50.2,55,29.72,10.0,WNW,13.8,23.0,N/A,,Scattered Clouds,290,2013-09-20 18:35:00
1:55 PM,59.0,48.9,69,29.73,10.0,WNW,8.1,17.3,N/A,Rain,Light Rain,290,2013-09-20 18:55:00
2:15 PM,58.3,53.2,83,29.73,10.0,West,5.8,-,N/A,Rain,Light Rain,280,2013-09-20 19:15:00
2:35 PM,61.5,55.2,80,29.73,10.0,West,8.1,-,N/A,,Mostly Cloudy,270,2013-09-20 19:35:00
2:55 PM,63.3,54.5,73,29.72,10.0,West,6.9,-,N/A,,Mostly Cloudy,280,2013-09-20 19:55:00
3:15 PM,61.7,54.3,77,29.73,10.0,WNW,9.2,-,N/A,,Overcast,300,2013-09-20 20:15:00
3:35 PM,58.1,55.0,90,29.74,5.0,NW,5.8,-,0.03,Rain,Rain,310,2013-09-20 20:35:00
3:55 PM,57.4,54.3,90,29.75,10.0,NW,9.2,19.6,0.04,Rain,Light Rain,310,2013-09-20 20:55:00
4:15 PM,56.5,53.1,88,29.76,7.0,WNW,10.4,18.4,N/A,,Overcast,300,2013-09-20 21:15:00
4:35 PM,56.7,52.9,87,29.76,10.0,WNW,8.1,-,N/A,,Overcast,290,2013-09-20 21:35:00
4:55 PM,55.8,52.2,88,29.77,10.0,WNW,9.2,16.1,N/A,,Overcast,300,2013-09-20 21:55:00
5:15 PM,55.6,51.1,85,29.77,10.0,WNW,9.2,-,N/A,,Overcast,300,2013-09-20 22:15:00
5:35 PM,55.4,50.5,84,29.78,10.0,WNW,4.6,-,N/A,,Mostly Cloudy,300,2013-09-20 22:35:00
5:55 PM,54.9,50.4,85,29.77,10.0,NW,3.5,-,N/A,,Mostly Cloudy,310,2013-09-20 22:55:00
6:15 PM,54.7,50.4,85,29.78,10.0,NW,3.5,-,N/A,,Mostly Cloudy,310,2013-09-20 23:15:00
6:35 PM,54.7,50.0,84,29.79,10.0,NW,4.6,-,N/A,,Overcast,310,2013-09-20 23:35:00
6:55 PM,53.8,49.3,85,29.79,10.0,NW,5.8,-,N/A,,Scattered Clouds,320,2013-09-20 23:55:00
7:15 PM,53.6,49.1,85,29.79,10.0,NNW,4.6,-,N/A,,Mostly Cloudy,340,2013-09-21 00:15:00
7:35 PM,53.6,49.1,85,29.80,10.0,NNW,6.9,-,N/A,,Overcast,330,2013-09-21 00:35:00
7:55 PM,52.9,48.6,85,29.80,10.0,NW,8.1,-,N/A,,Overcast,320,2013-09-21 00:55:00
8:15 PM,52.9,48.2,84,29.81,10.0,NW,5.8,-,N/A,,Overcast,310,2013-09-21 01:15:00
8:35 PM,52.0,47.3,84,29.81,10.0,NW,5.8,-,N/A,,Scattered Clouds,320,2013-09-21 01:35:00
8:55 PM,51.1,47.3,87,29.81,10.0,NW,5.8,-,N/A,,Clear,310,2013-09-21 01:55:00
9:15 PM,50.9,47.3,87,29.81,10.0,WNW,5.8,-,N/A,,Clear,300,2013-09-21 02:15:00
9:35 PM,50.5,46.8,87,29.82,10.0,NW,5.8,-,N/A,,Clear,310,2013-09-21 02:35:00
9:55 PM,49.8,46.6,89,29.82,10.0,NW,6.9,-,N/A,,Clear,310,2013-09-21 02:55:00
10:15 PM,49.1,46.4,90,29.82,10.0,WNW,5.8,-,N/A,,Clear,300,2013-09-21 03:15:00
10:35 PM,48.4,45.9,91,29.82,10.0,WNW,3.5,-,N/A,,Clear,300,2013-09-21 03:35:00
10:55 PM,48.0,45.5,91,29.82,10.0,West,3.5,-,N/A,,Clear,280,2013-09-21 03:55:00
11:15 PM,47.5,45.5,93,29.82,10.0,West,3.5,-,N/A,,Mostly Cloudy,270,2013-09-21 04:15:00
11:35 PM,47.8,46.0,93,29.82,10.0,Calm,Calm,-,N/A,,Overcast,0,2013-09-21 04:35:00
11:55 PM,47.8,46.8,96,29.82,7.0,WNW,4.6,-,N/A,,Heavy Drizzle,290,2013-09-21 04:55:00